Flag for U.S.A. Weather past 2 weeks in Wilmington, North Carolina, U.S.A.

Now
71 °F

Clear.


Feels Like: 68 °F
Forecast: 70 / 84 °F
Wind: 3 mph from Northeast

Location: New Hanover International Airport

Current Time: Jul 31, 2014 at 7:39:23 AM

Latest Report: Jul 31, 2014 at 6:53 AM


Visibility: 9 mi

Pressure: 30.07 "Hg

Humidity: 90%

Dew point: 68 °F

Location of WilmingtonLocation

Historic Weather in Wilmington — Graph

°F

Wilmington temperature yesterday

Maximum temperature yesterday: 84 °F (at 1:53 PM)
Minimum temperature yesterday: 68 °F (at 5:53 AM)
Average temperature yesterday: 76 °F

Past Weeks' High & Low Weather Summary

 TemperatureHumidityPressure
High94 °F (Jul 27, 5:53 PM)97% (Jul 21, 11:53 PM)30.15 "Hg (Jul 21, 11:53 PM)
Low68 °F (Jul 18, 3:53 AM)43% (Jul 27, 5:53 PM)29.75 "Hg (Jul 28, 4:53 PM)
Average79 °F79%29.99 "Hg
* Reported Jul 16 5:53 AM — Jul 31 5:53 AM, Wilmington, Weather by CustomWeather, © 2014

Note: Actual official high and low records may vary slightly from our data, if they occured in-between our weather recording intervals... More about our weather records

Advertising

Wilmington weather history for previous 24 hours

 ConditionsComfort  
Time TempWeatherWind HumidityBarometerVisibility
5:53 AM
Jul 31
70 °FClear.5 mph90%30.05 "Hg10 mi
4:53 AM70 °FPassing clouds.No wind90%30.05 "Hg10 mi
3:53 AM70 °FPassing clouds.5 mph93%30.05 "Hg10 mi
2:53 AM70 °FClear.No wind93%30.05 "Hg10 mi
1:53 AM72 °FClear.No wind91%30.05 "Hg10 mi
12:53 AM73 °FClear.5 mph84%30.06 "Hg10 mi
11:53 PM
Jul 30
72 °FClear.5 mph87%30.06 "Hg10 mi
10:53 PM73 °FClear.3 mph84%30.06 "Hg10 mi
9:53 PM75 °FClear.3 mph76%30.06 "Hg10 mi
8:53 PM78 °FSunny.3 mph64%30.04 "Hg10 mi
7:53 PM79 °FSunny.6 mph62%30.03 "Hg10 mi
6:53 PM80 °FSunny.8 mph58%30.02 "Hg10 mi
5:53 PM82 °FSunny.10 mph55%30.01 "Hg10 mi
4:53 PM83 °FSunny.8 mph50%30.01 "Hg10 mi
3:53 PM84 °FSunny.12 mph49%30.03 "Hg10 mi
2:53 PM84 °FSunny.12 mph53%30.03 "Hg10 mi
1:53 PM84 °FSunny.10 mph53%30.04 "Hg10 mi
12:53 PM82 °FSunny.10 mph55%30.04 "Hg10 mi
11:53 AM83 °FPassing clouds.9 mph57%30.05 "Hg10 mi
10:53 AM81 °FSunny.7 mph62%30.04 "Hg10 mi
9:53 AM80 °FSunny.6 mph67%30.03 "Hg10 mi
8:53 AM77 °FSunny.7 mph79%30.02 "Hg10 mi
7:53 AM73 °FSunny.6 mph88%30.02 "Hg10 mi
Weather by CustomWeather, © 2014

See weather overviewHow to use our weather pages